EW5860 Weather Reports


time (UTC)temp
C
wind
direction
speed
KPH
gust
KPH
rain 1hr
cm
rain 24hr
cm
rain mn
cm
humidity
%
barometer
mb
20260905224525 26 309 0.0 3.2 0.00 0.13 0.00 56 1010.3
20260905223015 26 36 0.0 1.6 0.00 0.13 0.00 55 1010.4
20260905221517 26 267 0.0 3.2 0.00 0.13 0.00 55 1010.4
20260905220015 26 22 0.0 4.8 0.00 0.13 0.00 53 1010.2
20260905214514 26 340 0.0 9.7 0.00 0.13 0.00 53 1010.2
20260905213013 26 57 0.0 1.6 0.00 0.13 0.00 52 1010.2
20260905211512 27 78 0.0 3.2 0.00 0.13 0.00 53 1010.1
20260905210011 27 38 0.0 8.0 0.00 0.13 0.00 52 1010.0
20260905204514 27 248 0.0 6.4 0.00 0.13 0.00 51 1010.0
20260905203007 26 263 1.6 6.4 0.00 0.13 0.00 50 1010.1
20260905201507 26 298 0.0 8.0 0.00 0.13 0.00 51 1010.3
20260905200006 26 71 3.2 9.7 0.00 0.13 0.00 52 1010.4
20260905194505 26 51 0.0 6.4 0.00 0.13 0.00 54 1010.3
20260905193006 26 278 1.6 6.4 0.00 0.13 0.00 54 1010.4
20260905191504 26 245 1.6 8.0 0.00 0.13 0.00 56 1010.5
20260905190003 25 28 1.6 8.0 0.00 0.13 0.00 58 1010.5
20260905184503 26 42 1.6 4.8 0.00 0.13 0.00 55 1010.5
20260905183002 25 38 0.0 4.8 0.00 0.13 0.00 58 1010.7
20260905181502 27 26 1.6 6.4 0.00 0.13 0.00 54 1010.7
20260905180001 27 25 0.0 4.8 0.00 0.13 0.00 56 1010.8
20260905174558 26 271 1.6 6.4 0.00 0.13 0.00 56 1010.8
20260905173057 26 226 1.6 14.5 0.00 0.13 0.00 56 1010.9
20260905171554 25 248 0.0 8.0 0.00 0.13 0.00 63 1011.0
20260905170055 25 19 0.0 8.0 0.00 0.13 0.00 59 1011.1
20260905164552 26 52 0.0 4.8 0.00 0.13 0.00 60 1011.1
20260905163050 25 38 0.0 9.7 0.00 0.13 0.00 60 1011.4
20260905161549 25 355 1.6 8.0 0.00 0.13 0.00 61 1011.6
20260905160115 25 275 0.0 8.0 0.00 0.13 0.00 64 1011.7
20260905154550 25 32 0.0 8.0 0.00 0.13 0.00 63 1011.7
20260905153044 25 113 0.0 4.8 0.00 0.13 0.00 62 1011.7
20260905151542 24 248 1.6 8.0 0.00 0.13 0.00 66 1011.6
20260905150041 24 84 0.0 6.4 0.00 0.13 0.00 66 1011.6
20260905144538 24 59 0.0 6.4 0.00 0.13 0.00 68 1011.5
20260905143034 23 84 0.0 3.2 0.00 0.13 0.00 73 1011.3
20260905141537 23 300 0.0 8.0 0.00 0.13 0.00 74 1011.4
20260905140030 23 337 0.0 4.8 0.00 0.13 0.00 76 1011.5
20260905134529 22 37 0.0 6.4 0.00 0.13 0.00 78 1011.6
20260905133024 22 241 1.6 8.0 0.00 0.13 0.00 79 1011.5
20260905131522 21 315 0.0 4.8 0.00 0.13 0.00 85 1011.4
20260905130021 20 229 0.0 3.2 0.00 0.13 0.00 91 1011.3
20260905124524 20 259 0.0 1.6 0.00 0.13 0.00 95 1011.4
20260905123019 19 250 0.0 1.6 0.00 0.13 0.00 96 1011.4
20260905121518 19 250 0.0 0.0 0.00 0.13 0.00 97 1011.5
20260905120018 19 250 0.0 0.0 0.00 0.13 0.00 97 1011.3
20260905114518 19 250 0.0 1.6 0.00 0.13 0.00 97 1011.5
20260905113015 19 250 0.0 0.0 0.00 0.13 0.00 98 1011.3
20260905111514 19 250 0.0 0.0 0.00 0.13 0.00 97 1011.1
20260905110013 19 250 0.0 0.0 0.00 0.13 0.00 97 1011.1
20260905104513 19 250 0.0 0.0 0.00 0.13 0.00 97 1010.8
20260905103018 19 250 0.0 0.0 0.00 0.13 0.00 97 1010.5
20260905101511 20 250 0.0 0.0 0.00 0.13 0.00 97 1010.4
20260905100009 20 250 0.0 0.0 0.00 0.13 0.00 97 1010.4
20260905094511 20 250 0.0 0.0 0.00 0.13 0.00 97 1010.3
20260905093009 20 250 0.0 0.0 0.00 0.13 0.00 97 1010.3
20260905091515 20 250 0.0 0.0 0.00 0.13 0.00 97 1010.3
20260905090008 20 250 0.0 0.0 0.00 0.13 0.00 97 1010.3
20260905084507 20 250 0.0 0.0 0.00 0.13 0.00 97 1010.3
20260905083007 20 250 0.0 0.0 0.00 0.13 0.00 97 1010.2
20260905081508 20 250 0.0 0.0 0.00 0.13 0.00 97 1010.3
20260905080006 20 250 0.0 0.0 0.00 0.13 0.00 97 1010.3
20260905074511 20 250 0.0 0.0 0.00 0.13 0.00 98 1010.3
20260905073004 20 250 0.0 1.6 0.00 0.13 0.00 98 1010.2
20260905071504 20 150 0.0 0.0 0.00 0.13 0.00 98 1010.2
20260905070004 20 150 0.0 0.0 0.00 0.13 0.00 98 1010.2
20260905064502 20 150 0.0 0.0 0.00 0.13 0.00 98 1010.4
20260905063101 20 150 0.0 0.0 0.00 0.13 0.00 97 1010.5
20260905061622 20 150 0.0 0.0 0.00 0.13 0.00 97 1010.5
20260905060112 20 150 0.0 0.0 0.00 0.13 0.00 97 1010.6
20260905054556 20 150 0.0 0.0 0.00 0.13 0.00 97 1010.6
20260905053054 20 150 0.0 0.0 0.00 0.13 0.00 97 1010.7
20260905051551 20 150 0.0 0.0 0.00 0.13 0.00 96 1010.8
20260905050049 21 150 0.0 0.0 0.00 0.13 0.00 96 1010.9
20260905044547 21 138 0.0 1.6 0.10 0.13 0.00 96 1010.9
20260905043044 21 74 0.0 0.0 0.13 0.13 0.00 95 1011.0
20260905041541 22 74 0.0 0.0 0.13 0.13 0.00 94 1011.0
20260905040040 22 26 0.0 4.8 0.13 0.13 0.00 94 1011.2
20260905034547 22 73 0.0 3.2 0.00 0.13 0.00 95 1011.4
20260905033038 22 277 0.0 0.0 0.00 0.13 0.00 95 1011.3
20260905031538 22 277 0.0 0.0 0.00 0.13 0.00 95 1011.0
20260905030040 22 277 0.0 0.0 0.00 0.13 0.00 95 1010.9
20260905024537 22 277 0.0 0.0 0.00 0.13 0.00 95 1010.8
20260905023035 22 277 0.0 0.0 0.00 0.13 0.00 95 1010.7
20260905021536 22 277 0.0 0.0 0.00 0.13 0.00 94 1010.7
20260905020040 22 277 0.0 0.0 0.00 0.13 0.00 94 1010.7
20260905014538 23 277 0.0 0.0 0.00 0.13 0.00 94 1010.8
20260905013034 23 277 0.0 0.0 0.00 0.13 0.00 94 1010.6
20260905011541 23 277 0.0 0.0 0.00 0.13 0.00 93 1010.7
20260905010034 23 277 0.0 0.0 0.00 0.13 0.00 93 1010.7
20260905004539 23 277 0.0 0.0 0.00 0.13 0.00 93 1010.8
20260905003034 23 277 0.0 0.0 0.00 0.13 0.00 92 1010.6
20260905001546 23 277 0.0 0.0 0.00 0.13 0.00 92 1010.6
20260905000032 23 277 0.0 0.0 0.00 0.13 0.00 91 1010.5
20260904234538 24 277 0.0 0.0 0.00 0.13 0.00 89 1010.3
20260904233040 25 277 0.0 0.0 0.00 0.13 0.00 87 1010.2
20260904231538 25 277 0.0 1.6 0.00 0.13 0.00 83 1010.1
20260904230028 26 277 0.0 0.0 0.00 0.13 0.00 80 1010.3